FENGYUN 1C DEB

Satellite information

Favourite Embed

Satellite Type and Status

DEBRISIN ORBIT

Key statistics

Satellite FENGYUN 1C DEB at a glance.

Uptime

9715

Days in orbit

Revolutions

≈ 15.0

Per day

Orbit

SSO

Sun Synchronous Orbit

Inclination

98.9

Latest

Satellite identification and parameters

Extended collection of information and parameters for FENGYUN 1C DEB.

Object identification

Identified? True

Debris? True

Object name: FENGYUN 1C DEB

International designator: 1999-025CUF

Object number (NORAD): 32185

Object ID (CCSDS): 32185

Country: PEOPLES REPUBLIC OF CHINA (PRC)

Current information (Y/N): Y

RCS size: SMALL

Orbital parameters

Period: 95.788 minutes

Inclination: 98.904 deg

SMA: 6934.821 km

Apoapsis: 669.479 km

Periapsis: 443.893 km

RAAN: 191.5986 deg

Eccentricy: 0.01626472

Argument of periapsis: 19.1732 deg

Mean anomaly: 341.5515 deg

Mean motion: 15.03314484 rev/day

Mean motion (dot): 0.00097252 rev/day2

B* drag term: 0.0053020946 1/REarth

Two-line elements (TLE)

Creation date: Dec. 11, 2025, 7:14 p.m.

Reference frame: TEME

Reference center: EARTH

Epoch: Dec. 11, 2025, 12:29 p.m. UTC

TLE line 0: 0 FENGYUN 1C DEB

TLE line 1: 1 32185U 99025CUF 25345.52049786 .00097252 00000-0 53021-2 0 9992

TLE line 2: 2 32185 98.9040 191.5986 0162647 19.1732 341.5515 15.03314484949974

Live tracking on map

Real-time ground track for satellite FENGYUN 1C DEB.

In-orbit conjunctions

A list of the most updated potential collisions computed for object FENGYUN 1C DEB.

Target Orbit TCA Probability of collision Miss distance Type
CZ-6A DEB LEO 2024-12-27 05:06:56 0.0004561921 600.0 (m) DEBRIS
COSMOS 1275 DEB LEO 2024-12-04 07:18:06 0.0001068453 138.0 (m) DEBRIS

Associated space launch

Chinese polar orbiting meteorological satellite

FENGYUN 1C DEB was lifted into orbit during the mission ‘Long March 4B | Feng Yun 1C’, on board a Long March 4B space rocket.

The launch took place on May 10, 1999, 1:33 a.m. from Launch Complex 7.

For more information about the launch, click the button.

Launch to space Long March 4B | Feng Yun 1C
Long March 4B | Feng Yun 1C

Agency: N/A

Status: Launch Successful

Launch date: May 10, 1999, 1:33 a.m. UTC

Rocket: Long March 4B

Launch pad: Launch Complex 7

Location: Taiyuan Satellite Launch Center, People's Republic of China

...

Latest news about this satellite

There are no fresh news available about this satellite. Check back as we update our databases every day.


Newsletter sign-up

Weekly statistics, charts and insights to help you stay on top of the space industry.